Starlink 4078

operational
NORAD ID: 52689 Int'l Des: 2022-053 Owner: SPXS Country: US Constellation: starlink
LEOCIRCULAR

About Starlink 4078

Description loading...

Live Position

Loading 3D Globe...

Upcoming Passes

Altitude History

Altitude vs Time

uPlot chart will show altitude changes over time

Two-Line Element Set

1 52689U 22053AK 26035.00108662 .00053487 00000-0 98709-3 0 9994
2 52689 53.2105 244.9134 0002806 150.9043 209.2123 15.48607196206782
Epoch: Feb 4, 2026 • Age: 14 hours

Current Status

Altitude 422.8 km
Velocity 7.66 km/s
Sub-Earth Point 26.72°N, 82.34°W
Launch Date May 18, 2022
Age 3.7 years
Type internet

Technical Details

Classification Payload
Mass 297.00 kg
Dry Mass 275.00 kg
Total Mass 297.00 kg
Length 0.20 m
Diameter 2.80 m
Span 9.00 m
Shape Box + pan
Manufacturer SPXS
Bus Type Starlink
Phase Status In Orbit
Owner/State SPXS/US

Large Constellations

Loading constellations...